363P/Lemmon (2024)

Japanese version
Home page
Updated on September 5, 2024

---------------------------------------------------------------------

* Profile

* Orbital Elements

Epoch 2024 Nov. 26.0 TT = JDT 2460640.5
T 2024 Nov. 13.19892 TT                                 MPCW
q   1.7208662            (2000.0)            P               Q
n   0.14584854     Peri.  340.74952     -0.60967412     -0.79097544
a   3.5743849      Node   146.75860     +0.73901631     -0.59072467
e   0.5185560      Incl.    5.39399     +0.28662234     -0.15938076
P   6.76
From 90 observations 2011 Nov. 3-2018 May 14, mean residual 0".4.

* Magnitudes Graph

        m1 = 17.5 + 5 log d + 10.0 log r

---------------------------------------------------------------------

The orbital elements are published on M.P.E.C. 2019-J142.
The magnitudes graphs are made with Comet for Windows.

---------------------------------------------------------------------

Copyright(C) Seiichi Yoshida (comet@aerith.net). All rights reserved.